Regional Weather Roundup
Issued by NWS

Home | Current Version | Previous Version | Graphics & Text | Print | Product List | Glossary On
Versions: 1 2 3 4 5 6 7 8 9 10 11 12 13 14 15 16 17 18 19 20 21 22 23 24 25 26 27 28 29 30 31 32 33 34 35 36 37 38 39 40 41 42 43 44 45 46 47 48 49 50
000
ASUS43 KLSX 010607
RWRMO

WEATHER SUMMARY FOR MISSOURI
NATIONAL WEATHER SERVICE SPRINGFIELD MO
100 AM CDT FRI AUG 01 2014

NOTE: "FAIR" INDICATES FEW OR NO CLOUDS BELOW 12,000 FEET WITH NO
       SIGNIFICANT WEATHER AND/OR OBSTRUCTIONS TO VISIBILITY.
       CURRENT SKY AND/OR WEATHER CONDITIONS ARE NOT AVAILABLE FOR
       CHILLICOTHE AND FARMINGTON.

MOZ001>031-035>038-043-044-053-054-010700-
...NORTHERN AND WESTERN MISSOURI...

CITY           SKY/WX    TMP DP  RH WIND       PRES   REMARKS
KANSAS CTY INT PTCLDY    65  58  78 SE6       30.06F
6HR MIN TEMP:  65; 6HR MAX TEMP:  80;

KANSAS C DTWN  CLEAR     72  59  63 CALM      30.05S
6HR MIN TEMP:  72; 6HR MAX TEMP:  82;

LEE`S SUMMIT   CLEAR     70  58  65 S3        30.07S
6HR MIN TEMP:  69; 6HR MAX TEMP:  80;

ST JOSEPH      PTCLDY    67  61  81 S5        30.05S
6HR MIN TEMP:  64; 6HR MAX TEMP:  78;

CHILLICOTHE      N/A     64  59  83 CALM      30.07S
6HR MIN TEMP:  63; 6HR MAX TEMP:  82;

KIRKSVILLE     CLOUDY    64  60  87 S3        30.08S
6HR MIN TEMP:  61; 6HR MAX TEMP:  82;


$$
MOZ066>068-077>081-088>096-101>105-010700-
...SOUTHWEST MISSOURI...

CITY           SKY/WX    TMP DP  RH WIND       PRES   REMARKS
SPRINGFIELD    CLEAR     64  62  93 S5        30.09R
6HR MIN TEMP:  64; 6HR MAX TEMP:  76;

JOPLIN         CLEAR     65  64  97 CALM      30.08F
6HR MIN TEMP:  65; 6HR MAX TEMP:  79;


$$
MOZ032>034-039>042-045>050-055>058-069>072-010700-
...CENTRAL MISSOURI...

CITY           SKY/WX    TMP DP  RH WIND       PRES   REMARKS
COLUMBIA       CLEAR     66  58  75 E7        30.06F
6HR MIN TEMP:  66; 6HR MAX TEMP:  82;

JEFFERSON CITY PTCLDY    66  60  81 CALM      30.05S
6HR MIN TEMP:  66; 6HR MAX TEMP:  84;

ROLLA          CLEAR     66  62  87 S8        30.07S
6HR MIN TEMP:  65; 6HR MAX TEMP:  82;

SEDALIA        CLEAR     63  57  81 E3        30.07S
6HR MIN TEMP:  63; 6HR MAX TEMP:  79;

WHITEMAN AFB   CLEAR     63  52  67 S2        30.05F
OSAGE BEACH      N/A     66  61  82 SW5       30.07S

$$
MOZ051-052-059>065-010700-
...EAST CENTRAL MISSOURI...

CITY           SKY/WX    TMP DP  RH WIND       PRES   REMARKS
ST LOUIS INTL  PTCLDY    74  62  66 S6        30.07S
6HR MIN TEMP:  73; 6HR MAX TEMP:  83;

SPIRIT OF STL  CLEAR     64  61  90 CALM      30.06S
6HR MIN TEMP:  64; 6HR MAX TEMP:  83;

ST CHARLES     CLEAR     66  63  90 CALM      30.06R
6HR MIN TEMP:  65; 6HR MAX TEMP:  81;


$$
MOZ072>076-082>087-097>100-106>115-010700-
...SOUTH CENTRAL AND SOUTHEAST MISSOURI...

CITY           SKY/WX    TMP DP  RH WIND       PRES   REMARKS
CAPE GIRARDEAU CLEAR     63  62  97 CALM      30.08S FOG
6HR MIN TEMP:  62; 6HR MAX TEMP:  75;

FARMINGTON     CLEAR     64  63  94 CALM      30.11S
6HR MIN TEMP:  64; 6HR MAX TEMP:  79;

POPLAR BLUFF   FOG       63  60  90 CALM      30.06F VSB 1/2
6HR MIN TEMP:  63; 6HR MAX TEMP:  73;

WEST PLAINS    FOG       60  58  92 N3        30.10F VSB 1/2
6HR MIN TEMP:  60; 6HR MAX TEMP:  73;


$$


USA.gov is the U.S. government's official web portal to all federal, state and local government web resources and services.